Time,TemperatureF,DewpointF,PressureIn,WindDirection,WindDirectionDegrees,WindSpeedMPH,WindSpeedGustMPH,Humidity,HourlyPrecipIn,Conditions,Clouds,dailyrainin,SoftwareType,DateUTC
2013-01-09 00:07:00,61.7,59.7,30.16,ESE,109,1.0,2.0,93,0.00,,,0.00,Wunderground v.1.15,2013-01-09 06:07:00,
2013-01-09 00:17:00,61.8,59.8,30.16,East,96,1.0,1.0,93,0.00,,,0.00,Wunderground v.1.15,2013-01-09 06:17:00,
2013-01-09 00:22:00,61.8,59.8,30.16,East,95,0.0,0.0,93,0.00,,,0.00,Wunderground v.1.15,2013-01-09 06:22:00,
2013-01-09 00:27:00,61.9,60.2,30.15,ESE,105,1.0,2.0,94,0.00,,,0.00,Wunderground v.1.15,2013-01-09 06:27:00,
2013-01-09 00:33:00,61.9,60.2,30.16,SSE,158,1.0,1.0,94,0.00,,,0.00,Wunderground v.1.15,2013-01-09 06:33:00,
2013-01-09 00:38:00,62.0,60.3,30.16,East,82,1.0,1.0,94,0.00,,,0.00,Wunderground v.1.15,2013-01-09 06:38:00,
2013-01-09 00:47:00,61.9,60.2,30.15,ESE,116,0.0,0.0,94,0.00,,,0.00,Wunderground v.1.15,2013-01-09 06:47:00,
2013-01-09 00:57:00,62.0,60.3,30.16,East,98,0.0,1.0,94,0.00,,,0.00,Wunderground v.1.15,2013-01-09 06:57:00,
2013-01-09 01:02:00,62.0,60.3,30.16,East,93,0.0,0.0,94,0.00,,,0.00,Wunderground v.1.15,2013-01-09 07:02:00,
2013-01-09 01:08:00,62.1,60.4,30.15,East,98,0.0,0.0,94,0.00,,,0.00,Wunderground v.1.15,2013-01-09 07:08:00,
2013-01-09 01:17:00,62.1,60.4,30.16,ESE,114,0.0,0.0,94,0.00,,,0.00,Wunderground v.1.15,2013-01-09 07:17:00,
2013-01-09 01:22:00,62.1,60.4,30.15,East,92,1.0,1.0,94,0.00,,,0.00,Wunderground v.1.15,2013-01-09 07:22:00,
2013-01-09 01:27:00,62.1,60.7,30.16,SE,138,1.0,1.0,95,0.00,,,0.00,Wunderground v.1.15,2013-01-09 07:27:00,
2013-01-09 01:33:00,62.1,60.7,30.17,ESE,121,0.0,0.0,95,0.00,,,0.00,Wunderground v.1.15,2013-01-09 07:33:00,
2013-01-09 01:38:00,62.2,60.8,30.17,NE,51,0.0,0.0,95,0.00,,,0.00,Wunderground v.1.15,2013-01-09 07:38:00,
2013-01-09 01:48:00,62.2,60.8,30.17,SE,143,0.0,0.0,95,0.00,,,0.00,Wunderground v.1.15,2013-01-09 07:48:00,
2013-01-09 01:53:00,62.2,60.8,30.16,SE,134,0.0,0.0,95,0.00,,,0.00,Wunderground v.1.15,2013-01-09 07:53:00,
2013-01-09 02:03:00,62.1,60.7,30.16,SE,134,0.0,0.0,95,0.00,,,0.00,Wunderground v.1.15,2013-01-09 08:03:00,
2013-01-09 02:08:00,62.0,60.6,30.16,SE,133,0.0,0.0,95,0.00,,,0.00,Wunderground v.1.15,2013-01-09 08:08:00,
2013-01-09 02:13:00,62.0,60.6,30.16,SE,133,0.0,0.0,95,0.00,,,0.00,Wunderground v.1.15,2013-01-09 08:13:00,
2013-01-09 02:23:00,61.9,60.5,30.16,SE,133,0.0,0.0,95,0.00,,,0.00,Wunderground v.1.15,2013-01-09 08:23:00,
2013-01-09 02:28:00,61.9,60.5,30.16,SE,134,0.0,0.0,95,0.00,,,0.00,Wunderground v.1.15,2013-01-09 08:28:00,
2013-01-09 02:33:00,61.9,60.5,30.17,SE,135,0.0,0.0,95,0.00,,,0.00,Wunderground v.1.15,2013-01-09 08:33:00,
2013-01-09 02:38:00,61.9,60.5,30.16,SE,134,0.0,0.0,95,0.00,,,0.00,Wunderground v.1.15,2013-01-09 08:38:00,
2013-01-09 02:48:00,61.8,60.4,30.16,SE,133,0.0,0.0,95,0.00,,,0.00,Wunderground v.1.15,2013-01-09 08:48:00,
2013-01-09 02:53:00,61.7,60.3,30.15,ESE,106,0.0,0.0,95,0.00,,,0.00,Wunderground v.1.15,2013-01-09 08:53:00,
2013-01-09 02:58:00,61.6,60.2,30.15,ESE,106,0.0,0.0,95,0.00,,,0.00,Wunderground v.1.15,2013-01-09 08:58:00,
2013-01-09 03:03:00,61.4,60.0,30.14,ESE,106,0.0,0.0,95,0.00,,,0.00,Wunderground v.1.15,2013-01-09 09:03:00,
2013-01-09 03:12:00,61.2,59.8,30.14,NE,38,1.0,2.0,95,0.00,,,0.00,Wunderground v.1.15,2013-01-09 09:12:00,
2013-01-09 03:17:00,61.2,60.1,30.15,NE,53,1.0,2.0,96,0.00,,,0.01,Wunderground v.1.15,2013-01-09 09:17:00,
2013-01-09 03:27:00,60.9,59.5,30.14,NE,49,0.0,0.0,95,0.00,,,0.01,Wunderground v.1.15,2013-01-09 09:27:00,
2013-01-09 03:32:00,60.7,59.6,30.14,NE,48,0.0,0.0,96,0.00,,,0.01,Wunderground v.1.15,2013-01-09 09:32:00,
2013-01-09 03:42:00,60.6,59.5,30.14,NE,49,0.0,0.0,96,0.00,,,0.01,Wunderground v.1.15,2013-01-09 09:42:00,
2013-01-09 03:47:00,60.5,59.4,30.14,NE,48,0.0,0.0,96,0.00,,,0.01,Wunderground v.1.15,2013-01-09 09:47:00,
2013-01-09 03:52:00,60.4,59.3,30.14,NE,48,0.0,0.0,96,0.00,,,0.01,Wunderground v.1.15,2013-01-09 09:52:00,
2013-01-09 04:02:00,60.3,59.2,30.14,NE,48,0.0,0.0,96,0.00,,,0.01,Wunderground v.1.15,2013-01-09 10:02:00,
2013-01-09 04:07:00,60.2,59.1,30.14,NE,48,0.0,0.0,96,0.00,,,0.01,Wunderground v.1.15,2013-01-09 10:07:00,
2013-01-09 04:12:00,60.2,59.1,30.14,NE,49,0.0,0.0,96,0.00,,,0.01,Wunderground v.1.15,2013-01-09 10:12:00,
2013-01-09 04:17:00,60.2,59.3,30.13,NE,49,0.0,0.0,97,0.00,,,0.01,Wunderground v.1.15,2013-01-09 10:17:00,
2013-01-09 04:22:00,60.1,59.2,30.13,NE,49,0.0,0.0,97,0.00,,,0.01,Wunderground v.1.15,2013-01-09 10:22:00,
2013-01-09 04:28:00,60.2,59.3,30.13,NE,49,0.0,0.0,97,0.00,,,0.01,Wunderground v.1.15,2013-01-09 10:28:00,
2013-01-09 04:33:00,60.2,59.3,30.12,NE,49,0.0,0.0,97,0.00,,,0.02,Wunderground v.1.15,2013-01-09 10:33:00,
2013-01-09 04:42:00,60.1,59.2,30.12,East,94,0.0,2.0,97,0.00,,,0.02,Wunderground v.1.15,2013-01-09 10:42:00,
2013-01-09 04:47:00,60.1,59.2,30.11,East,92,0.0,2.0,97,0.00,,,0.02,Wunderground v.1.15,2013-01-09 10:47:00,
2013-01-09 04:52:00,60.1,59.2,30.11,East,88,0.0,0.0,97,0.00,,,0.02,Wunderground v.1.15,2013-01-09 10:52:00,
2013-01-09 04:57:00,60.1,59.2,30.11,ESE,119,1.0,1.0,97,0.00,,,0.02,Wunderground v.1.15,2013-01-09 10:57:00,
2013-01-09 05:02:00,60.1,59.2,30.12,ESE,114,0.0,3.0,97,0.00,,,0.02,Wunderground v.1.15,2013-01-09 11:02:00,
2013-01-09 05:12:00,60.1,59.2,30.12,ESE,115,1.0,1.0,97,0.00,,,0.02,Wunderground v.1.15,2013-01-09 11:12:00,
2013-01-09 05:17:00,60.1,59.2,30.12,ESE,114,0.0,1.0,97,0.00,,,0.02,Wunderground v.1.15,2013-01-09 11:17:00,
2013-01-09 05:22:00,60.1,59.2,30.12,ESE,115,0.0,0.0,97,0.00,,,0.02,Wunderground v.1.15,2013-01-09 11:22:00,
2013-01-09 05:28:00,60.0,59.1,30.12,ESE,117,0.0,0.0,97,0.00,,,0.02,Wunderground v.1.15,2013-01-09 11:28:00,
2013-01-09 05:37:00,60.1,59.2,30.12,ESE,111,0.0,1.0,97,0.00,,,0.02,Wunderground v.1.15,2013-01-09 11:37:00,
2013-01-09 05:42:00,60.2,59.3,30.12,East,82,1.0,1.0,97,0.00,,,0.02,Wunderground v.1.15,2013-01-09 11:42:00,
2013-01-09 05:52:00,60.4,59.5,30.12,ENE,65,0.0,1.0,97,0.00,,,0.02,Wunderground v.1.15,2013-01-09 11:52:00,
2013-01-09 06:02:00,60.5,59.6,30.13,ENE,57,1.0,1.0,97,0.00,,,0.02,Wunderground v.1.15,2013-01-09 12:02:00,
2013-01-09 06:07:00,60.7,59.8,30.13,ENE,63,0.0,1.0,97,0.00,,,0.02,Wunderground v.1.15,2013-01-09 12:07:00,
2013-01-09 06:12:00,60.8,59.9,30.13,ESE,107,0.0,0.0,97,0.00,,,0.02,Wunderground v.1.15,2013-01-09 12:12:00,
2013-01-09 06:17:00,61.0,60.1,30.13,ESE,106,0.0,0.0,97,0.00,,,0.02,Wunderground v.1.15,2013-01-09 12:17:00,
2013-01-09 06:28:00,61.1,60.2,30.14,NE,38,0.0,0.0,97,0.00,,,0.02,Wunderground v.1.15,2013-01-09 12:28:00,
2013-01-09 06:38:00,61.2,60.3,30.15,ENE,66,0.0,0.0,97,0.00,,,0.02,Wunderground v.1.15,2013-01-09 12:38:00,
2013-01-09 06:43:00,61.2,60.3,30.15,ENE,65,0.0,0.0,97,0.00,,,0.02,Wunderground v.1.15,2013-01-09 12:43:00,
2013-01-09 06:48:00,61.1,60.2,30.15,ENE,66,0.0,0.0,97,0.00,,,0.02,Wunderground v.1.15,2013-01-09 12:48:00,
2013-01-09 06:53:00,61.1,60.2,30.15,NNE,27,0.0,0.0,97,0.00,,,0.02,Wunderground v.1.15,2013-01-09 12:53:00,
2013-01-09 06:58:00,61.0,60.1,30.16,NNE,27,0.0,0.0,97,0.00,,,0.02,Wunderground v.1.15,2013-01-09 12:58:00,
2013-01-09 07:03:00,61.0,60.1,30.16,NNE,27,0.0,0.0,97,0.00,,,0.02,Wunderground v.1.15,2013-01-09 13:03:00,
2013-01-09 07:12:00,60.9,60.0,30.16,NNE,33,0.0,0.0,97,0.00,,,0.02,Wunderground v.1.15,2013-01-09 13:12:00,
2013-01-09 07:17:00,61.1,60.2,30.16,NNE,33,0.0,0.0,97,0.00,,,0.02,Wunderground v.1.15,2013-01-09 13:17:00,
2013-01-09 07:22:00,61.2,60.3,30.17,NE,34,0.0,0.0,97,0.00,,,0.02,Wunderground v.1.15,2013-01-09 13:22:00,
2013-01-09 07:28:00,61.1,60.2,30.17,NE,34,0.0,0.0,97,0.00,,,0.02,Wunderground v.1.15,2013-01-09 13:28:00,
2013-01-09 07:33:00,61.2,60.3,30.17,NNE,33,0.0,0.0,97,0.00,,,0.02,Wunderground v.1.15,2013-01-09 13:33:00,
2013-01-09 07:43:00,61.3,60.4,30.17,East,82,0.0,0.0,97,0.00,,,0.02,Wunderground v.1.15,2013-01-09 13:43:00,
2013-01-09 07:48:00,61.6,60.7,30.17,East,86,0.0,0.0,97,0.00,,,0.02,Wunderground v.1.15,2013-01-09 13:48:00,
2013-01-09 07:53:00,61.8,60.9,30.17,East,84,0.0,0.0,97,0.00,,,0.02,Wunderground v.1.15,2013-01-09 13:53:00,
2013-01-09 07:58:00,62.2,61.6,30.17,ESE,107,1.0,1.0,98,0.00,,,0.02,Wunderground v.1.15,2013-01-09 13:58:00,
2013-01-09 08:03:00,62.6,61.7,30.17,ESE,111,1.0,1.0,97,0.00,,,0.02,Wunderground v.1.15,2013-01-09 14:03:00,
2013-01-09 08:08:00,62.9,62.0,30.17,ESE,111,1.0,1.0,97,0.00,,,0.02,Wunderground v.1.15,2013-01-09 14:08:00,
2013-01-09 08:18:00,63.5,62.6,30.17,ENE,73,1.0,3.0,97,0.00,,,0.02,Wunderground v.1.15,2013-01-09 14:18:00,
2013-01-09 08:23:00,63.7,62.8,30.17,ESE,122,1.0,1.0,97,0.00,,,0.02,Wunderground v.1.15,2013-01-09 14:23:00,
2013-01-09 08:28:00,63.9,63.0,30.17,North,350,1.0,1.0,97,0.00,,,0.02,Wunderground v.1.15,2013-01-09 14:28:00,
2013-01-09 08:33:00,64.1,62.9,30.17,SE,141,1.0,1.0,96,0.00,,,0.02,Wunderground v.1.15,2013-01-09 14:33:00,
2013-01-09 08:42:00,64.3,63.1,30.17,ESE,123,1.0,1.0,96,0.00,,,0.02,Wunderground v.1.15,2013-01-09 14:42:00,
2013-01-09 08:48:00,64.4,63.2,30.18,East,101,1.0,1.0,96,0.00,,,0.02,Wunderground v.1.15,2013-01-09 14:48:00,
2013-01-09 08:53:00,64.5,63.3,30.18,SE,142,1.0,1.0,96,0.00,,,0.02,Wunderground v.1.15,2013-01-09 14:53:00,
2013-01-09 08:58:00,64.6,63.4,30.18,ESE,114,1.0,4.0,96,0.00,,,0.02,Wunderground v.1.15,2013-01-09 14:58:00,
2013-01-09 09:07:00,64.9,63.4,30.18,NE,37,1.0,2.0,95,0.00,,,0.02,Wunderground v.1.15,2013-01-09 15:07:00,
2013-01-09 09:12:00,65.0,63.5,30.19,South,178,1.0,5.0,95,0.00,,,0.02,Wunderground v.1.15,2013-01-09 15:12:00,
2013-01-09 09:22:00,65.3,63.8,30.19,ESE,112,2.0,4.0,95,0.00,,,0.02,Wunderground v.1.15,2013-01-09 15:22:00,
2013-01-09 09:27:00,65.4,63.9,30.19,ESE,115,2.0,4.0,95,0.00,,,0.02,Wunderground v.1.15,2013-01-09 15:27:00,
2013-01-09 09:37:00,65.5,64.0,30.19,East,92,1.0,1.0,95,0.00,,,0.02,Wunderground v.1.15,2013-01-09 15:37:00,
2013-01-09 09:42:00,65.6,64.1,30.19,South,171,1.0,1.0,95,0.00,,,0.02,Wunderground v.1.15,2013-01-09 15:42:00,
2013-01-09 09:47:00,65.6,64.1,30.19,SSE,161,1.0,7.0,95,0.00,,,0.02,Wunderground v.1.15,2013-01-09 15:47:00,
2013-01-09 09:52:00,65.7,64.2,30.19,ESE,123,1.0,2.0,95,0.00,,,0.02,Wunderground v.1.15,2013-01-09 15:52:00,
2013-01-09 09:57:00,65.8,64.0,30.19,ESE,119,1.0,2.0,94,0.00,,,0.02,Wunderground v.1.15,2013-01-09 15:57:00,
2013-01-09 10:07:00,65.9,64.1,30.19,SE,136,2.0,2.0,94,0.00,,,0.02,Wunderground v.1.15,2013-01-09 16:07:00,
2013-01-09 10:12:00,65.9,64.1,30.19,ESE,108,2.0,3.0,94,0.00,,,0.02,Wunderground v.1.15,2013-01-09 16:12:00,
2013-01-09 10:17:00,66.0,64.2,30.19,ESE,119,1.0,3.0,94,0.00,,,0.02,Wunderground v.1.15,2013-01-09 16:17:00,
2013-01-09 10:28:00,66.2,64.4,30.19,SE,129,1.0,1.0,94,0.00,,,0.02,Wunderground v.1.15,2013-01-09 16:28:00,
2013-01-09 10:33:00,66.2,64.4,30.19,East,93,2.0,2.0,94,0.00,,,0.02,Wunderground v.1.15,2013-01-09 16:33:00,
2013-01-09 10:42:00,66.3,64.5,30.19,ESE,109,1.0,3.0,94,0.00,,,0.02,Wunderground v.1.15,2013-01-09 16:42:00,
2013-01-09 10:47:00,66.4,64.6,30.19,ESE,109,2.0,3.0,94,0.00,,,0.02,Wunderground v.1.15,2013-01-09 16:47:00,
2013-01-09 10:57:00,66.6,64.5,30.19,ESE,108,1.0,1.0,93,0.00,,,0.02,Wunderground v.1.15,2013-01-09 16:57:00,
2013-01-09 11:02:00,66.7,64.6,30.19,East,99,1.0,2.0,93,0.00,,,0.02,Wunderground v.1.15,2013-01-09 17:02:00,
2013-01-09 11:12:00,66.8,64.7,30.19,ESE,102,1.0,1.0,93,0.00,,,0.02,Wunderground v.1.15,2013-01-09 17:12:00,
2013-01-09 11:17:00,67.0,64.9,30.19,East,101,0.0,1.0,93,0.00,,,0.02,Wunderground v.1.15,2013-01-09 17:17:00,
2013-01-09 11:22:00,67.1,65.0,30.19,ESE,105,0.0,0.0,93,0.00,,,0.02,Wunderground v.1.15,2013-01-09 17:22:00,
2013-01-09 11:27:00,67.2,65.1,30.19,NE,51,1.0,1.0,93,0.00,,,0.02,Wunderground v.1.15,2013-01-09 17:27:00,
2013-01-09 11:32:00,67.4,65.0,30.19,East,101,1.0,2.0,92,0.00,,,0.02,Wunderground v.1.15,2013-01-09 17:32:00,
2013-01-09 11:37:00,67.6,65.2,30.18,East,88,1.0,2.0,92,0.00,,,0.02,Wunderground v.1.15,2013-01-09 17:37:00,
2013-01-09 11:42:00,67.6,65.2,30.18,ESE,111,2.0,2.0,92,0.00,,,0.02,Wunderground v.1.15,2013-01-09 17:42:00,
2013-01-09 11:47:00,67.6,65.2,30.18,SE,129,1.0,4.0,92,0.00,,,0.02,Wunderground v.1.15,2013-01-09 17:47:00,
2013-01-09 11:52:00,67.7,65.3,30.17,East,92,2.0,5.0,92,0.00,,,0.02,Wunderground v.1.15,2013-01-09 17:52:00,
2013-01-09 12:02:00,67.9,65.5,30.17,East,98,1.0,1.0,92,0.00,,,0.02,Wunderground v.1.15,2013-01-09 18:02:00,
2013-01-09 12:07:00,68.1,65.4,30.16,ESE,114,1.0,1.0,91,0.00,,,0.02,Wunderground v.1.15,2013-01-09 18:07:00,
2013-01-09 12:12:00,68.3,65.6,30.16,East,98,1.0,1.0,91,0.00,,,0.02,Wunderground v.1.15,2013-01-09 18:12:00,
2013-01-09 12:17:00,68.4,65.7,30.16,East,93,0.0,1.0,91,0.00,,,0.02,Wunderground v.1.15,2013-01-09 18:17:00,
2013-01-09 12:22:00,68.4,65.7,30.16,ENE,61,0.0,0.0,91,0.00,,,0.02,Wunderground v.1.15,2013-01-09 18:22:00,
2013-01-09 12:28:00,68.5,65.8,30.16,ENE,76,1.0,3.0,91,0.00,,,0.02,Wunderground v.1.15,2013-01-09 18:28:00,
2013-01-09 12:33:00,68.5,65.8,30.16,SE,130,1.0,1.0,91,0.00,,,0.02,Wunderground v.1.15,2013-01-09 18:33:00,
2013-01-09 12:38:00,68.5,65.8,30.15,ESE,109,2.0,2.0,91,0.00,,,0.02,Wunderground v.1.15,2013-01-09 18:38:00,
2013-01-09 12:43:00,68.6,65.9,30.15,ESE,113,2.0,3.0,91,0.00,,,0.02,Wunderground v.1.15,2013-01-09 18:43:00,
2013-01-09 12:48:00,68.8,66.1,30.15,East,98,2.0,3.0,91,0.00,,,0.02,Wunderground v.1.15,2013-01-09 18:48:00,
2013-01-09 12:53:00,69.0,66.3,30.15,SSE,147,1.0,5.0,91,0.00,,,0.02,Wunderground v.1.15,2013-01-09 18:53:00,
2013-01-09 12:58:00,69.1,66.4,30.15,SSE,160,2.0,5.0,91,0.00,,,0.02,Wunderground v.1.15,2013-01-09 18:58:00,
2013-01-09 13:03:00,69.2,66.5,30.15,SE,140,2.0,3.0,91,0.00,,,0.02,Wunderground v.1.15,2013-01-09 19:03:00,
2013-01-09 13:07:00,69.3,66.6,30.15,ENE,76,2.0,4.0,91,0.00,,,0.02,Wunderground v.1.15,2013-01-09 19:07:00,
2013-01-09 13:12:00,69.3,66.6,30.15,South,181,2.0,4.0,91,0.00,,,0.02,Wunderground v.1.15,2013-01-09 19:12:00,
2013-01-09 13:17:00,69.3,66.2,30.14,SE,131,2.0,4.0,90,0.00,,,0.02,Wunderground v.1.15,2013-01-09 19:17:00,
2013-01-09 13:22:00,69.3,66.2,30.14,ENE,72,3.0,3.0,90,0.00,,,0.02,Wunderground v.1.15,2013-01-09 19:22:00,
2013-01-09 13:28:00,69.3,66.6,30.13,ESE,123,3.0,3.0,91,0.00,,,0.02,Wunderground v.1.15,2013-01-09 19:28:00,
2013-01-09 13:38:00,69.4,66.7,30.14,SE,125,2.0,3.0,91,0.00,,,0.02,Wunderground v.1.15,2013-01-09 19:38:00,
2013-01-09 13:43:00,69.5,66.8,30.14,ESE,118,1.0,1.0,91,0.00,,,0.02,Wunderground v.1.15,2013-01-09 19:43:00,
2013-01-09 13:48:00,69.7,66.6,30.14,ESE,111,0.0,1.0,90,0.00,,,0.02,Wunderground v.1.15,2013-01-09 19:48:00,
2013-01-09 13:53:00,69.7,66.6,30.14,ESE,114,0.0,0.0,90,0.00,,,0.02,Wunderground v.1.15,2013-01-09 19:53:00,
2013-01-09 13:58:00,69.7,66.6,30.14,SE,140,0.0,1.0,90,0.00,,,0.02,Wunderground v.1.15,2013-01-09 19:58:00,
2013-01-09 14:08:00,69.7,66.6,30.14,SE,134,2.0,2.0,90,0.00,,,0.02,Wunderground v.1.15,2013-01-09 20:08:00,
2013-01-09 14:13:00,69.6,66.5,30.14,East,88,0.0,1.0,90,0.00,,,0.02,Wunderground v.1.15,2013-01-09 20:13:00,
2013-01-09 14:18:00,69.6,66.5,30.13,East,98,1.0,1.0,90,0.00,,,0.02,Wunderground v.1.15,2013-01-09 20:18:00,
2013-01-09 14:23:00,69.6,66.5,30.13,ESE,105,1.0,3.0,90,0.00,,,0.02,Wunderground v.1.15,2013-01-09 20:23:00,
2013-01-09 14:33:00,69.7,66.6,30.13,East,84,2.0,5.0,90,0.00,,,0.02,Wunderground v.1.15,2013-01-09 20:33:00,
2013-01-09 14:43:00,69.7,66.6,30.13,ESE,117,2.0,2.0,90,0.00,,,0.02,Wunderground v.1.15,2013-01-09 20:43:00,
2013-01-09 14:47:00,69.6,66.5,30.13,East,98,1.0,2.0,90,0.00,,,0.02,Wunderground v.1.15,2013-01-09 20:47:00,
2013-01-09 14:53:00,69.5,66.4,30.13,ESE,118,0.0,1.0,90,0.00,,,0.02,Wunderground v.1.15,2013-01-09 20:53:00,
2013-01-09 14:57:00,69.4,66.7,30.14,West,275,1.0,1.0,91,0.00,,,0.02,Wunderground v.1.15,2013-01-09 20:57:00,
2013-01-09 15:02:00,69.3,66.6,30.14,ESE,119,1.0,1.0,91,0.00,,,0.02,Wunderground v.1.15,2013-01-09 21:02:00,
2013-01-09 15:12:00,69.1,66.7,30.13,East,89,2.0,2.0,92,0.00,,,0.02,Wunderground v.1.15,2013-01-09 21:12:00,
2013-01-09 15:17:00,69.0,66.3,30.13,East,101,1.0,2.0,91,0.00,,,0.02,Wunderground v.1.15,2013-01-09 21:17:00,
2013-01-09 15:22:00,69.0,66.6,30.14,ESE,113,1.0,4.0,92,0.00,,,0.02,Wunderground v.1.15,2013-01-09 21:22:00,
2013-01-09 15:28:00,69.0,66.6,30.13,ESE,111,2.0,4.0,92,0.00,,,0.02,Wunderground v.1.15,2013-01-09 21:28:00,
2013-01-09 15:33:00,69.0,66.6,30.14,East,99,1.0,2.0,92,0.00,,,0.02,Wunderground v.1.15,2013-01-09 21:33:00,
2013-01-09 15:37:00,69.0,66.6,30.14,SE,127,1.0,2.0,92,0.00,,,0.02,Wunderground v.1.15,2013-01-09 21:37:00,
2013-01-09 15:47:00,68.9,66.5,30.14,SE,129,2.0,4.0,92,0.00,,,0.02,Wunderground v.1.15,2013-01-09 21:47:00,
2013-01-09 15:57:00,68.8,66.4,30.14,SE,132,1.0,2.0,92,0.00,,,0.02,Wunderground v.1.15,2013-01-09 21:57:00,
2013-01-09 16:02:00,68.8,66.7,30.14,ESE,111,1.0,2.0,93,0.00,,,0.02,Wunderground v.1.15,2013-01-09 22:02:00,
2013-01-09 16:12:00,68.7,66.6,30.14,SE,136,2.0,2.0,93,0.00,,,0.02,Wunderground v.1.15,2013-01-09 22:12:00,
2013-01-09 16:22:00,68.5,66.4,30.14,SE,126,2.0,9.0,93,0.00,,,0.02,Wunderground v.1.15,2013-01-09 22:22:00,
2013-01-09 16:27:00,68.3,66.2,30.15,ESE,121,2.0,9.0,93,0.00,,,0.02,Wunderground v.1.15,2013-01-09 22:27:00,
2013-01-09 16:32:00,68.3,66.5,30.15,East,98,2.0,2.0,94,0.00,,,0.02,Wunderground v.1.15,2013-01-09 22:32:00,
2013-01-09 16:37:00,68.2,66.4,30.15,East,98,0.0,2.0,94,0.00,,,0.02,Wunderground v.1.15,2013-01-09 22:37:00,
2013-01-09 16:42:00,68.1,66.3,30.15,ESE,121,1.0,1.0,94,0.00,,,0.02,Wunderground v.1.15,2013-01-09 22:42:00,
2013-01-09 16:52:00,67.9,66.1,30.15,ESE,109,1.0,1.0,94,0.00,,,0.03,Wunderground v.1.15,2013-01-09 22:52:00,
2013-01-09 16:57:00,67.8,66.3,30.15,SE,130,1.0,1.0,95,0.00,,,0.03,Wunderground v.1.15,2013-01-09 22:57:00,
2013-01-09 17:02:00,67.7,66.2,30.15,ESE,107,1.0,1.0,95,0.00,,,0.03,Wunderground v.1.15,2013-01-09 23:02:00,
2013-01-09 17:07:00,67.6,66.1,30.15,SSE,154,1.0,1.0,95,0.00,,,0.03,Wunderground v.1.15,2013-01-09 23:07:00,
2013-01-09 17:12:00,67.5,66.0,30.15,ESE,114,1.0,1.0,95,0.00,,,0.03,Wunderground v.1.15,2013-01-09 23:12:00,
2013-01-09 17:17:00,67.4,66.2,30.15,ESE,113,2.0,2.0,96,0.00,,,0.03,Wunderground v.1.15,2013-01-09 23:17:00,
2013-01-09 17:28:00,67.3,66.1,30.15,East,98,1.0,1.0,96,0.00,,,0.03,Wunderground v.1.15,2013-01-09 23:28:00,
2013-01-09 17:33:00,67.2,66.0,30.15,ESE,105,1.0,1.0,96,0.00,,,0.03,Wunderground v.1.15,2013-01-09 23:33:00,
2013-01-09 17:38:00,67.1,65.9,30.15,SE,125,1.0,1.0,96,0.00,,,0.03,Wunderground v.1.15,2013-01-09 23:38:00,
2013-01-09 17:43:00,67.1,65.9,30.15,ESE,114,1.0,1.0,96,0.00,,,0.03,Wunderground v.1.15,2013-01-09 23:43:00,
2013-01-09 17:52:00,67.0,66.1,30.15,ESE,102,1.0,1.0,97,0.00,,,0.03,Wunderground v.1.15,2013-01-09 23:52:00,
2013-01-09 17:57:00,67.0,66.1,30.16,East,96,1.0,1.0,97,0.00,,,0.03,Wunderground v.1.15,2013-01-09 23:57:00,
2013-01-09 18:02:00,66.9,66.0,30.16,ESE,114,1.0,1.0,97,0.00,,,0.03,Wunderground v.1.15,2013-01-10 00:02:00,
2013-01-09 18:12:00,66.8,65.9,30.16,ESE,105,1.0,1.0,97,0.00,,,0.03,Wunderground v.1.15,2013-01-10 00:12:00,
2013-01-09 18:17:00,66.8,65.9,30.17,ESE,106,0.0,1.0,97,0.00,,,0.03,Wunderground v.1.15,2013-01-10 00:17:00,
2013-01-09 18:28:00,66.8,65.9,30.17,East,86,1.0,1.0,97,0.00,,,0.03,Wunderground v.1.15,2013-01-10 00:28:00,
2013-01-09 18:37:00,66.8,65.9,30.17,East,96,1.0,1.0,97,0.00,,,0.03,Wunderground v.1.15,2013-01-10 00:37:00,
2013-01-09 18:42:00,66.8,65.9,30.17,ESE,123,1.0,1.0,97,0.00,,,0.03,Wunderground v.1.15,2013-01-10 00:42:00,
2013-01-09 18:47:00,66.8,65.9,30.17,SE,125,0.0,1.0,97,0.00,,,0.03,Wunderground v.1.15,2013-01-10 00:47:00,
2013-01-09 18:52:00,66.8,65.9,30.18,NE,56,0.0,0.0,97,0.00,,,0.03,Wunderground v.1.15,2013-01-10 00:52:00,
2013-01-09 19:02:00,66.8,65.9,30.18,SE,142,1.0,1.0,97,0.00,,,0.03,Wunderground v.1.15,2013-01-10 01:02:00,
2013-01-09 19:08:00,66.8,66.2,30.18,ESE,110,1.0,1.0,98,0.00,,,0.03,Wunderground v.1.15,2013-01-10 01:08:00,
2013-01-09 19:12:00,66.8,66.2,30.18,SE,128,1.0,1.0,98,0.00,,,0.03,Wunderground v.1.15,2013-01-10 01:12:00,
2013-01-09 19:17:00,66.7,66.1,30.18,ESE,110,1.0,3.0,98,0.00,,,0.03,Wunderground v.1.15,2013-01-10 01:17:00,
2013-01-09 19:22:00,66.7,66.1,30.18,ESE,107,1.0,1.0,98,0.00,,,0.03,Wunderground v.1.15,2013-01-10 01:22:00,
2013-01-09 19:28:00,66.7,66.1,30.18,ESE,118,1.0,1.0,98,0.00,,,0.03,Wunderground v.1.15,2013-01-10 01:28:00,
2013-01-09 19:33:00,66.7,66.1,30.19,SE,144,1.0,2.0,98,0.00,,,0.03,Wunderground v.1.15,2013-01-10 01:33:00,
2013-01-09 19:38:00,66.7,66.1,30.19,East,89,1.0,2.0,98,0.00,,,0.03,Wunderground v.1.15,2013-01-10 01:38:00,
2013-01-09 19:43:00,66.7,66.1,30.19,SE,136,1.0,1.0,98,0.00,,,0.03,Wunderground v.1.15,2013-01-10 01:43:00,
2013-01-09 19:48:00,66.7,66.1,30.19,East,82,1.0,1.0,98,0.00,,,0.03,Wunderground v.1.15,2013-01-10 01:48:00,
2013-01-09 19:53:00,66.7,66.1,30.19,East,88,1.0,1.0,98,0.00,,,0.03,Wunderground v.1.15,2013-01-10 01:53:00,
2013-01-09 20:03:00,66.7,66.1,30.19,ESE,115,1.0,3.0,98,0.12,,,0.06,Wunderground v.1.15,2013-01-10 02:03:00,
2013-01-09 20:12:00,66.7,66.1,30.19,ESE,117,1.0,1.0,98,0.04,,,0.06,Wunderground v.1.15,2013-01-10 02:12:00,
2013-01-09 20:17:00,66.6,66.0,30.19,ESE,119,1.0,2.0,98,0.00,,,0.06,Wunderground v.1.15,2013-01-10 02:17:00,
2013-01-09 20:22:00,66.7,66.1,30.18,ESE,106,1.0,1.0,98,0.00,,,0.06,Wunderground v.1.15,2013-01-10 02:22:00,
2013-01-09 20:27:00,66.7,66.1,30.18,East,87,1.0,1.0,98,0.00,,,0.06,Wunderground v.1.15,2013-01-10 02:27:00,
2013-01-09 20:37:00,66.7,66.1,30.18,East,94,1.0,3.0,98,0.00,,,0.07,Wunderground v.1.15,2013-01-10 02:37:00,
2013-01-09 20:42:00,66.7,66.1,30.19,East,80,1.0,3.0,98,0.00,,,0.07,Wunderground v.1.15,2013-01-10 02:42:00,
2013-01-09 20:47:00,66.7,66.1,30.18,SE,129,1.0,3.0,98,0.00,,,0.07,Wunderground v.1.15,2013-01-10 02:47:00,
2013-01-09 20:52:00,66.7,66.1,30.19,SSE,156,1.0,2.0,98,0.04,,,0.08,Wunderground v.1.15,2013-01-10 02:52:00,
2013-01-09 20:57:00,66.7,66.1,30.19,East,99,0.0,2.0,98,0.04,,,0.08,Wunderground v.1.15,2013-01-10 02:57:00,
2013-01-09 21:02:00,66.7,66.1,30.19,ESE,117,0.0,0.0,98,0.04,,,0.08,Wunderground v.1.15,2013-01-10 03:02:00,
2013-01-09 21:07:00,66.7,66.1,30.19,East,96,1.0,1.0,98,0.00,,,0.08,Wunderground v.1.15,2013-01-10 03:07:00,
2013-01-09 21:12:00,66.7,66.1,30.19,East,81,1.0,1.0,98,0.00,,,0.08,Wunderground v.1.15,2013-01-10 03:12:00,
2013-01-09 21:17:00,66.8,66.2,30.19,ESE,111,0.0,1.0,98,0.00,,,0.08,Wunderground v.1.15,2013-01-10 03:17:00,
2013-01-09 21:22:00,66.8,66.2,30.19,ESE,111,0.0,0.0,98,0.00,,,0.08,Wunderground v.1.15,2013-01-10 03:22:00,
2013-01-09 21:27:00,66.8,66.2,30.19,ESE,118,0.0,0.0,98,0.00,,,0.08,Wunderground v.1.15,2013-01-10 03:27:00,
2013-01-09 21:32:00,66.8,66.2,30.19,East,100,0.0,1.0,98,0.00,,,0.08,Wunderground v.1.15,2013-01-10 03:32:00,
2013-01-09 21:42:00,66.8,66.2,30.20,SSE,158,0.0,2.0,98,0.00,,,0.08,Wunderground v.1.15,2013-01-10 03:42:00,
2013-01-09 21:47:00,66.9,66.3,30.20,SE,138,0.0,2.0,98,0.00,,,0.08,Wunderground v.1.15,2013-01-10 03:47:00,
2013-01-09 21:52:00,66.9,66.3,30.20,South,179,0.0,0.0,98,0.00,,,0.08,Wunderground v.1.15,2013-01-10 03:52:00,
2013-01-09 21:57:00,66.9,66.6,30.20,ESE,110,1.0,1.0,99,0.00,,,0.08,Wunderground v.1.15,2013-01-10 03:57:00,
2013-01-09 22:02:00,67.0,66.4,30.20,East,79,0.0,3.0,98,0.00,,,0.08,Wunderground v.1.15,2013-01-10 04:02:00,
2013-01-09 22:07:00,67.0,66.4,30.20,ENE,70,0.0,3.0,98,0.00,,,0.08,Wunderground v.1.15,2013-01-10 04:07:00,
2013-01-09 22:17:00,67.0,66.4,30.21,ESE,119,0.0,0.0,98,0.00,,,0.08,Wunderground v.1.15,2013-01-10 04:17:00,
2013-01-09 22:22:00,67.0,66.4,30.21,East,100,0.0,0.0,98,0.00,,,0.08,Wunderground v.1.15,2013-01-10 04:22:00,
2013-01-09 22:27:00,67.0,66.4,30.20,ESE,103,0.0,0.0,98,0.00,,,0.08,Wunderground v.1.15,2013-01-10 04:27:00,
2013-01-09 22:32:00,67.1,66.8,30.20,SE,137,0.0,0.0,99,0.00,,,0.08,Wunderground v.1.15,2013-01-10 04:32:00,
2013-01-09 22:37:00,67.1,66.8,30.21,ESE,121,0.0,0.0,99,0.00,,,0.08,Wunderground v.1.15,2013-01-10 04:37:00,
2013-01-09 22:43:00,67.1,66.8,30.20,ESE,123,0.0,1.0,99,0.00,,,0.08,Wunderground v.1.15,2013-01-10 04:43:00,
2013-01-09 22:48:00,67.2,66.9,30.20,SE,141,0.0,1.0,99,0.00,,,0.08,Wunderground v.1.15,2013-01-10 04:48:00,
2013-01-09 22:57:00,67.2,66.9,30.19,ESE,118,0.0,1.0,99,0.00,,,0.08,Wunderground v.1.15,2013-01-10 04:57:00,
2013-01-09 23:07:00,67.3,67.0,30.20,ESE,119,1.0,1.0,99,0.00,,,0.09,Wunderground v.1.15,2013-01-10 05:07:00,
2013-01-09 23:12:00,67.3,67.0,30.20,SE,130,1.0,1.0,99,0.00,,,0.09,Wunderground v.1.15,2013-01-10 05:12:00,
2013-01-09 23:17:00,67.3,67.0,30.19,SE,130,0.0,1.0,99,0.00,,,0.09,Wunderground v.1.15,2013-01-10 05:17:00,
2013-01-09 23:22:00,67.4,67.1,30.19,SE,141,1.0,1.0,99,0.00,,,0.09,Wunderground v.1.15,2013-01-10 05:22:00,
2013-01-09 23:28:00,67.4,67.1,30.19,NNE,28,1.0,1.0,99,0.00,,,0.09,Wunderground v.1.15,2013-01-10 05:28:00,
2013-01-09 23:33:00,67.4,67.1,30.20,ESE,117,1.0,1.0,99,0.00,,,0.09,Wunderground v.1.15,2013-01-10 05:33:00,
2013-01-09 23:38:00,67.4,67.1,30.20,SSE,147,1.0,1.0,99,0.00,,,0.09,Wunderground v.1.15,2013-01-10 05:38:00,
2013-01-09 23:43:00,67.4,67.1,30.20,ESE,103,1.0,1.0,99,0.00,,,0.09,Wunderground v.1.15,2013-01-10 05:43:00,
2013-01-09 23:52:00,67.5,67.2,30.20,ESE,109,1.0,1.0,99,0.00,,,0.09,Wunderground v.1.15,2013-01-10 05:52:00,
2013-01-09 23:57:00,67.5,67.2,30.20,SE,135,1.0,2.0,99,0.00,,,0.00,Wunderground v.1.15,2013-01-10 05:57:00,